User: anonymous   Login
Location: Canyam�s
(41.5996°N, 2.4450°E)
Time: 20:45:36
(UTC+00:00)
Language:

STARLINK-1329 - Orbit

View from above orbital plane
View from above orbital plane
View from above satellite
View from above satellite

Ground track
Ground track

The orbit data is extracted from the following two-line orbital elements,

1 45531C 20025A   21208.35643816 -.00014215  00000-0 -95269-3 0  2088
2 45531  53.0528 116.8660 0001719  59.6972 330.6810 15.06402851    11
Epoch (UTC): 27 July 2021 08:33:16
Eccentricity: 0.0001719
inclination: 53.0528°
perigee height: 546 km
apogee height: 548 km
right ascension of ascending node: 116.8660°
argument of perigee: 59.6972°
revolutions per day: 15.06402851
mean anomaly at epoch: 330.6810°
orbit number at epoch: 1

The dashed part of the orbit path shows where the satellite is in the earth's shadow,  

DLR